Temp
-10 -9 -9 -10 -10 -9 -9 -9 -9 -9 -9 -9 -8 -8 -8 -8 -9 -9 -9 -9 -9 -9 -10 -10 -10 -10 -10 -10 -10 -10 -10 -10 -10
-10 -10 -10 -10 -10 -10 -10 -10 -9 -9 -9 -9 -9 -9 -9 -9 -9 -9 -9 -9 -10 -10 -10 -10 -10 -10 -10 -10 -10 -10 -10 -10 -10
-10 -10 -10 -10 -10 -10 -10 -10 -10 -10 -9 -9 -9 -9 -9 -9 -9 -10 -10 -10 -10 -10 -10 -10 -10 -10 -10 -10 -10 -10 -10 -10 -10
-10 -10 -10 -10 -10 -10 -10 -10 -10 -10 -10 -9 -9 -9 -9 -10 -10 -10 -10 -10 -10 -10 -10 -10 -11 -11 -11 -11 -11 -11 -10 -10 -10
-11 -11 -10 -10 -10 -11 -10 -10 -10 -10 -10 -10 -10 -10 -10 -10 -10 -10 -10 -10 -10 -10 -10 -11 -11 -11 -11 -11 -11 -11 -11 -10 -11
-11 -11 -11 -11 -11 -11 -11 -11 -11 -11 -11 -10 -10 -10 -10 -10 -10 -10 -10 -10 -10 -11 -11 -11 -11 -11 -11 -11 -11 -11 -11 -11 -11
-11 -11 -11 -11 -11 -11 -11 -11 -11 -11 -11 -11 -11 -10 -10 -10 -10 -10 -10 -11 -11 -11 -11 -11 -11 -11 -11 -11 -11 -11 -11 -11 -11
-11 -11 -11 -11 -11 -11 -11 -11 -11 -11 -11 -11 -11 -11 -11 -11 -11 -11 -11 -11 -11 -11 -11 -11 -11 -11 -11 -11 -11 -12 -12 -12 -11
-11 -11 -11 -11 -11 -11 -11 -11 -11 -11 -11 -11 -11 -11 -11 -11 -11 -11 -11 -11 -11 -11 -11 -11 -12 -11 -12 -12 -12 -11 -12 -12 -12
-11 -11 -11 -11 -11 -11 -11 -11 -11 -11 -11 -11 -11 -11 -12 -12 -12 -12 -11 -11 -11 -11 -11 -11 -12 -12 -12 -12 -12 -12 -12 -12 -12
-11 -11 -11 -11 -11 -11 -11 -11 -11 -11 -11 -12 -12 -12 -12 -12 -12 -12 -12 -12 -12 -12 -12 -12 -12 -12 -12 -12 -12 -12 -12 -12 -12
-11 -11 -11 -11 -11 -11 -12 -12 -12 -12 -12 -12 -12 -12 -12 -12 -12 -12 -12 -12 -12 -12 -12 -12 -12 -12 -13 -13 -13 -13 -13 -13 -13
-11 -11 -11 -12 -12 -12 -12 -12 -12 -12 -12 -12 -12 -12 -12 -13 -13 -13 -13 -13 -13 -13 -13 -13 -13 -13 -13 -13 -13 -13 -13 -13 -13
-12 -12 -12 -12 -12 -12 -12 -12 -12 -12 -12 -12 -12 -12 -13 -13 -13 -13 -13 -13 -13 -13 -13 -13 -13 -13 -13 -14 -13 -14 -14 -14 -14
-12 -12 -12 -12 -12 -12 -12 -12 -12 -13 -13 -13 -13 -13 -13 -13 -13 -13 -13 -13 -13 -13 -13 -13 -14 -14 -14 -14 -14 -14 -14 -14 -14
-12 -12 -12 -12 -12 -12 -12 -12 -13 -13 -13 -13 -13 -13 -13 -13 -13 -14 -14 -14 -14 -14 -14 -14 -14 -14 -14 -14 -14 -14 -14 -14 -14
-12 -12 -12 -12 -12 -13 -13 -13 -13 -13 -13 -13 -13 -13 -14 -14 -14 -14 -14 -14 -14 -14 -14 -14 -14 -14 -14 -14 -14 -14 -14 -14 -14
-13 -13 -12 -12 -13 -13 -13 -13 -13 -13 -14 -14 -14 -14 -14 -14 -14 -14 -14 -14 -14 -14 -14 -14 -14 -14 -14 -14 -14 -14 -14 -14 -14
-13 -13 -13 -13 -13 -13 -13 -13 -14 -14 -14 -14 -14 -15 -15 -15 -15 -15 -15 -15 -15 -15 -15 -15 -15 -15 -15 -14 -14 -14 -14 -14 -14
-13 -13 -13 -13 -13 -14 -14 -14 -14 -14 -14 -14 -15 -15 -15 -15 -15 -15 -15 -15 -15 -15 -15 -15 -15 -15 -15 -15 -14 -14 -14 -15 -15
Height
5878 5878 5877 5876 5875 5874 5873 5873 5872 5871 5870 5869 5868 5866 5864 5862 5861 5860 5858 5856 5855 5853 5852 5850 5849 5847 5846 5844 5843 5842 5840 5839 5837
5876 5876 5875 5874 5873 5872 5871 5871 5870 5869 5868 5867 5866 5864 5862 5861 5859 5857 5856 5854 5852 5851 5850 5848 5847 5845 5844 5843 5842 5840 5839 5837 5836
5874 5873 5873 5872 5872 5871 5870 5869 5869 5867 5866 5865 5864 5862 5860 5858 5857 5855 5854 5852 5850 5849 5848 5846 5845 5843 5843 5841 5840 5838 5837 5835 5833
5871 5871 5870 5870 5870 5870 5869 5868 5867 5865 5864 5863 5862 5860 5858 5856 5855 5853 5851 5850 5848 5847 5846 5844 5843 5842 5840 5839 5837 5836 5834 5832 5831
5869 5869 5868 5868 5868 5867 5866 5865 5864 5863 5862 5861 5859 5858 5856 5854 5852 5850 5848 5847 5845 5844 5843 5842 5840 5839 5838 5836 5834 5833 5831 5829 5827
5867 5867 5866 5866 5865 5865 5864 5863 5862 5861 5860 5858 5857 5855 5854 5852 5850 5848 5846 5844 5843 5842 5840 5839 5838 5836 5834 5833 5831 5829 5828 5826 5824
5864 5864 5864 5863 5863 5862 5862 5861 5860 5858 5857 5856 5854 5853 5851 5849 5847 5845 5843 5841 5840 5838 5837 5835 5834 5832 5831 5829 5828 5825 5824 5822 5820
5861 5861 5861 5860 5860 5859 5859 5858 5856 5855 5853 5852 5851 5849 5847 5846 5844 5842 5839 5837 5835 5834 5832 5831 5830 5828 5826 5824 5823 5821 5819 5817 5816
5858 5858 5858 5857 5857 5856 5855 5854 5852 5851 5849 5848 5846 5844 5843 5841 5839 5837 5835 5833 5831 5829 5827 5826 5824 5823 5821 5819 5817 5816 5814 5812 5810
5855 5854 5854 5853 5853 5852 5851 5850 5849 5847 5845 5843 5841 5840 5838 5836 5834 5832 5830 5828 5826 5824 5821 5819 5818 5816 5815 5813 5811 5809 5808 5806 5804
5852 5851 5851 5849 5849 5848 5847 5846 5844 5843 5841 5838 5836 5835 5832 5830 5828 5826 5824 5822 5820 5818 5815 5813 5810 5808 5806 5805 5803 5801 5800 5799 5797
5847 5847 5846 5845 5844 5843 5842 5840 5839 5837 5835 5833 5831 5828 5826 5824 5821 5819 5817 5815 5813 5810 5808 5805 5803 5800 5798 5796 5794 5792 5791 5790 5788
5843 5842 5841 5840 5839 5838 5836 5834 5833 5831 5829 5826 5824 5821 5819 5817 5814 5811 5809 5807 5804 5802 5800 5797 5795 5792 5790 5788 5786 5784 5782 5781 5779
5838 5837 5836 5835 5833 5831 5830 5828 5826 5824 5822 5820 5817 5815 5812 5810 5807 5804 5801 5798 5796 5793 5791 5788 5786 5783 5781 5779 5777 5775 5772 5771 5769
5832 5831 5830 5828 5827 5825 5823 5821 5819 5817 5815 5812 5810 5807 5805 5802 5799 5795 5792 5789 5787 5784 5781 5779 5776 5773 5771 5769 5767 5765 5762 5760 5758
5826 5824 5823 5821 5820 5818 5816 5814 5812 5810 5808 5805 5802 5799 5796 5793 5789 5786 5783 5780 5777 5774 5771 5768 5766 5763 5761 5759 5756 5754 5751 5749 5746
5818 5817 5815 5814 5812 5811 5809 5807 5804 5801 5798 5796 5793 5789 5786 5783 5779 5776 5773 5770 5767 5764 5761 5758 5755 5752 5749 5746 5744 5741 5738 5735 5732
5810 5809 5807 5806 5804 5802 5800 5798 5795 5792 5788 5785 5782 5778 5775 5771 5768 5765 5762 5758 5755 5751 5748 5744 5742 5739 5736 5734 5730 5727 5724 5721 5718
5801 5800 5798 5797 5795 5792 5790 5787 5784 5782 5778 5774 5771 5767 5764 5760 5758 5754 5750 5746 5742 5738 5734 5730 5727 5724 5721 5718 5715 5712 5708 5705 5701
5791 5790 5789 5787 5785 5782 5780 5777 5773 5770 5766 5762 5759 5756 5752 5749 5746 5742 5738 5734 5729 5724 5720 5715 5712 5708 5704 5700 5697 5694 5691 5687 5684
Wind_Speed
8 11 12 12 12 11 10 9 10 10 10 11 11 13 14 15 15 14 14 13 14 14 14 14 14 15 14 11 9 10 12 13 13
8 11 12 13 12 10 8 8 9 10 11 12 12 13 13 14 14 14 14 13 13 13 14 13 13 13 12 10 11 13 14 16 15
8 10 12 11 9 6 5 8 11 12 13 13 13 12 13 13 13 14 14 14 12 12 13 12 12 12 12 13 14 14 14 16 18
6 9 10 8 5 3 4 7 10 13 14 15 14 15 14 13 13 14 15 15 14 14 13 13 14 14 13 13 13 13 13 15 17
7 9 8 6 3 2 4 6 9 11 13 15 16 15 13 13 13 15 16 17 17 16 15 15 14 15 14 14 13 13 12 14 16
9 10 9 6 4 3 4 6 8 9 11 13 15 16 15 14 14 15 16 17 18 17 17 17 17 16 17 15 13 13 13 15 17
11 11 10 7 6 4 4 6 8 9 10 12 14 17 16 14 15 16 16 17 18 20 20 18 17 17 17 17 16 16 17 17 18
10 10 10 9 9 7 6 7 9 10 11 13 14 17 17 17 16 16 17 18 20 21 22 22 22 20 20 20 20 20 20 20 21
9 9 9 9 9 8 8 9 10 12 14 15 16 18 19 19 19 19 19 20 21 23 25 26 26 25 25 25 25 24 25 25 25
9 8 7 8 9 9 10 11 13 15 16 18 19 20 22 23 23 22 22 23 24 25 27 28 30 31 31 31 31 30 29 29 30
10 10 10 10 10 11 12 14 16 17 19 20 21 23 24 25 25 26 26 26 27 28 29 31 32 33 34 36 36 35 34 34 33
12 12 12 12 12 13 15 17 18 20 21 23 24 25 27 28 28 29 29 29 30 31 32 33 34 35 35 36 37 38 37 36 35
16 16 15 15 16 17 18 19 21 23 25 26 28 29 30 31 31 32 32 33 33 34 34 35 36 36 36 36 36 37 38 37 37
20 20 19 20 19 20 21 23 24 26 28 29 30 32 33 33 34 35 36 36 37 37 37 37 38 38 38 38 39 40 40 41 41
23 22 22 23 23 24 25 26 27 29 30 31 33 35 36 36 38 38 39 40 40 40 40 40 40 41 42 42 42 43 44 45 46
26 26 26 27 27 28 29 29 30 31 33 34 37 38 39 40 41 42 43 43 42 43 43 43 44 44 45 46 47 48 48 50 50
30 30 31 30 31 32 33 33 34 34 36 38 40 42 43 44 44 45 46 46 46 46 46 47 47 48 48 49 50 52 53 54 55
33 34 34 35 35 36 36 37 38 38 40 42 45 46 47 47 48 48 49 50 50 50 51 51 52 52 53 55 56 58 59 60 62
36 38 38 39 39 40 41 41 41 42 44 46 48 49 49 49 50 50 52 53 54 55 55 56 56 58 59 61 62 63 64 65 65
40 41 43 43 43 43 44 44 45 46 48 50 51 52 52 51 52 53 56 57 57 58 59 61 63 64 66 67 67 66 66 66 67
Wind_Direction
327 327 334 337 340 339 341 347 345 347 349 349 348 0 5 6 3 0 358 353 348 347 349 346 341 339 337 339 346 350 348 350 351
323 329 331 337 340 346 352 1 10 7 2 356 356 5 7 3 357 353 348 346 343 343 344 343 343 346 346 343 342 342 342 344 336
311 324 329 341 344 356 9 18 20 18 8 1 359 4 3 357 350 345 338 334 335 334 335 335 338 339 336 332 330 332 337 342 332
292 316 329 345 347 353 359 12 16 15 9 8 9 9 0 350 343 337 330 327 325 322 322 324 327 326 324 322 322 325 334 332 326
273 305 320 330 320 312 337 354 4 6 9 7 4 3 356 346 334 329 326 323 320 316 312 312 315 314 312 315 320 319 326 325 328
274 298 307 314 312 307 317 336 345 352 357 358 356 355 352 341 328 325 322 314 312 309 308 309 310 310 309 310 309 313 317 318 322
280 291 297 312 310 312 318 314 323 332 335 338 341 345 344 333 324 318 315 312 305 303 301 300 299 300 302 302 303 303 310 317 319
280 288 295 306 310 309 313 307 310 318 321 323 321 328 332 328 320 314 311 310 306 296 292 289 290 290 292 294 294 298 302 307 311
281 280 289 299 305 310 310 308 309 313 313 315 314 313 316 316 315 313 309 307 304 300 292 283 284 284 284 287 289 292 296 301 305
298 295 290 291 295 300 309 308 310 315 315 313 311 308 308 308 308 309 308 306 304 300 297 291 284 280 280 281 284 286 289 293 298
291 291 290 287 289 294 304 308 309 311 314 310 306 302 303 305 305 303 302 302 301 298 297 295 292 287 282 278 279 282 284 287 292
288 284 285 285 287 295 299 306 309 309 312 313 307 303 301 302 302 301 301 299 298 296 295 294 293 290 285 282 279 280 281 283 287
292 287 285 285 289 294 298 301 306 308 310 311 309 304 301 300 299 299 299 298 296 294 293 292 291 289 286 283 280 279 280 283 286
294 291 289 290 289 290 295 298 301 305 308 309 307 303 301 299 297 297 296 295 295 293 293 291 291 289 287 283 281 281 282 284 284
288 287 288 288 289 290 291 294 296 300 302 306 305 303 300 297 296 294 293 293 294 293 292 290 289 288 286 285 284 284 284 285 285
288 287 288 290 290 289 290 292 293 298 300 303 303 301 298 295 294 293 293 293 292 291 291 289 288 288 287 286 287 287 287 287 286
285 287 289 291 293 293 294 295 296 297 298 299 299 298 297 295 294 293 293 293 293 292 291 289 288 287 287 287 286 286 286 286 286
283 286 289 290 291 293 294 295 296 296 296 296 297 296 296 296 295 295 295 295 294 292 291 290 289 289 289 289 289 288 287 287 287
284 286 287 289 292 294 294 294 294 294 294 293 293 294 294 294 294 295 294 293 293 294 292 291 290 289 289 289 288 288 287 286 286
282 286 289 290 291 293 293 293 292 292 292 292 293 294 294 294 294 293 294 295 294 292 292 292 292 292 292 291 290 288 287 285 284